Date,TemperatureHighF,TemperatureAvgF,TemperatureLowF,DewpointHighF,DewpointAvgF,DewpointLowF,HumidityHigh,HumidityAvg,HumidityLow,PressureMaxIn,PressureMinIn,WindSpeedMaxMPH,WindSpeedAvgMPH,GustSpeedMaxMPH,PrecipitationSumIn
2012-12-7,46,46,46,44,44,43,92,91,91,30.08,30.05,0,0,0,0.00
2012-12-8,50,48,46,48,46,43,94,92,91,30.04,29.88,0,0,0,0.00
2012-12-9,49,46,43,47,43,39,95,90,78,30.27,30.02,0,0,0,0.29
2012-12-10,55,53,47,54,51,45,96,95,94,30.03,29.56,0,0,0,0.21
2012-12-11,54,47,42,53,39,29,96,75,58,30.21,29.57,0,0,0,0.05
2012-12-12,46,41,36,32,29,26,74,63,48,30.45,30.20,0,0,0,0.00
2012-12-13,49,38,33,33,29,26,84,69,50,30.48,30.33,0,0,0,0.00
2012-12-14,49,39,31,33,29,26,83,67,48,30.33,30.15,0,0,0,0.00
2012-12-15,63,39,32,36,30,26,83,70,38,30.33,30.21,0,0,0,0.12
2012-12-16,50,45,42,45,41,33,93,85,70,30.23,29.91,0,0,0,0.15
2012-12-17,46,44,42,45,42,40,94,92,90,29.92,29.63,0,0,0,0.24
2012-12-18,55,49,45,52,45,36,96,87,72,29.64,29.47,0,0,0,0.21
2012-12-19,50,44,40,37,32,28,74,62,49,30.13,29.62,0,0,0,0.00
2012-12-20,48,40,32,43,32,26,83,73,63,30.24,29.84,0,0,0,0.00
2012-12-21,67,48,38,54,40,29,94,77,38,29.84,29.14,15,2,15,1.07
2012-12-22,39,38,36,32,26,20,85,63,48,29.81,29.32,10,4,14,0.00
2012-12-23,45,39,36,29,25,21,67,57,43,29.95,29.80,9,2,9,0.00
2012-12-24,41,36,30,32,25,22,86,66,54,30.08,29.92,4,0,4,0.08
2012-12-25,45,38,33,37,32,26,91,80,68,30.24,29.88,9,1,9,0.02
2012-12-26,42,34,30,40,29,23,94,81,70,30.27,29.42,15,4,15,0.71
2012-12-27,46,39,31,44,34,22,94,85,70,29.81,29.21,13,4,13,0.59
2012-12-28,41,34,30,29,25,22,79,70,58,30.05,29.80,11,2,11,0.00
2012-12-29,37,33,30,35,30,24,92,86,79,30.03,29.45,7,1,7,0.20
2012-12-30,38,32,29,30,21,16,89,63,45,30.15,29.54,15,4,15,0.00
2012-12-31,39,34,29,28,23,17,68,62,55,30.17,29.87,10,3,10,0.00
2013-1-1,41,38,29,30,26,14,68,62,52,29.99,29.80,13,3,13,0.01